Time,TemperatureF,DewpointF,PressureIn,WindDirection,WindDirectionDegrees,WindSpeedMPH,WindSpeedGustMPH,Humidity,HourlyPrecipIn,Conditions,Clouds,dailyrainin,SoftwareType,DateUTC
2013-01-27 00:09:00,21.8,17.0,30.46,SW,236,0.0,0.0,82,0.00,,,0.00,weatherlink.com 1.10,2013-01-27 05:09:00,
2013-01-27 00:24:00,21.8,17.0,30.47,SW,236,0.0,0.0,83,0.00,,,0.00,weatherlink.com 1.10,2013-01-27 05:24:00,
2013-01-27 00:39:00,21.6,18.0,30.47,SW,236,0.0,0.0,84,0.00,,,0.00,weatherlink.com 1.10,2013-01-27 05:39:00,
2013-01-27 00:54:00,21.5,18.0,30.47,SW,236,0.0,0.0,85,0.00,,,0.00,weatherlink.com 1.10,2013-01-27 05:54:00,
2013-01-27 01:09:00,21.3,18.0,30.47,SW,236,0.0,0.0,85,0.00,,,0.00,weatherlink.com 1.10,2013-01-27 06:09:00,
2013-01-27 01:24:00,21.4,18.0,30.45,SSW,196,0.0,0.0,85,0.00,,,0.00,weatherlink.com 1.10,2013-01-27 06:24:00,
2013-01-27 01:39:00,20.9,17.0,30.46,SSW,196,0.0,0.0,84,0.00,,,0.00,weatherlink.com 1.10,2013-01-27 06:39:00,
2013-01-27 01:54:00,20.6,17.0,30.45,SSW,194,0.0,0.0,85,0.00,,,0.00,weatherlink.com 1.10,2013-01-27 06:54:00,
2013-01-27 02:24:00,20.8,17.0,30.45,SE,145,0.0,0.0,85,0.00,,,0.00,weatherlink.com 1.10,2013-01-27 07:24:00,
2013-01-27 02:39:00,20.9,17.0,30.45,SE,138,0.0,0.0,84,0.00,,,0.00,weatherlink.com 1.10,2013-01-27 07:39:00,
2013-01-27 02:54:00,20.4,17.0,30.46,SE,138,0.0,0.0,85,0.00,,,0.00,weatherlink.com 1.10,2013-01-27 07:54:00,
2013-01-27 03:09:00,19.8,16.0,30.46,SE,138,0.0,0.0,85,0.00,,,0.00,weatherlink.com 1.10,2013-01-27 08:09:00,
2013-01-27 03:24:00,19.4,16.0,30.46,SE,146,0.0,1.0,86,0.00,,,0.00,weatherlink.com 1.10,2013-01-27 08:24:00,
2013-01-27 03:39:00,19.4,16.0,30.46,SSE,153,0.0,0.0,87,0.00,,,0.00,weatherlink.com 1.10,2013-01-27 08:39:00,
2013-01-27 03:54:00,19.9,17.0,30.46,SSE,153,0.0,0.0,87,0.00,,,0.00,weatherlink.com 1.10,2013-01-27 08:54:00,
2013-01-27 04:09:00,20.6,17.0,30.45,SSE,155,0.0,3.0,87,0.00,,,0.00,weatherlink.com 1.10,2013-01-27 09:09:00,
2013-01-27 04:24:00,21.3,17.0,30.46,South,172,2.0,6.0,84,0.00,,,0.00,weatherlink.com 1.10,2013-01-27 09:24:00,
2013-01-27 04:39:00,21.7,17.0,30.46,SSW,205,2.0,5.0,83,0.00,,,0.00,weatherlink.com 1.10,2013-01-27 09:39:00,
2013-01-27 04:54:00,21.8,17.0,30.46,South,184,1.0,4.0,83,0.00,,,0.00,weatherlink.com 1.10,2013-01-27 09:54:00,
2013-01-27 05:09:00,21.7,17.0,30.46,SE,140,0.0,3.0,83,0.00,,,0.00,weatherlink.com 1.10,2013-01-27 10:09:00,
2013-01-27 05:24:00,21.5,17.0,30.45,SE,128,0.0,3.0,83,0.00,,,0.00,weatherlink.com 1.10,2013-01-27 10:24:00,
2013-01-27 05:39:00,20.8,17.0,30.46,South,189,0.0,2.0,84,0.00,,,0.00,weatherlink.com 1.10,2013-01-27 10:39:00,
2013-01-27 05:54:00,20.4,17.0,30.46,ESE,123,0.0,2.0,85,0.00,,,0.00,weatherlink.com 1.10,2013-01-27 10:54:00,
2013-01-27 06:10:00,20.7,17.0,30.46,SE,125,0.0,3.0,85,0.00,,,0.00,weatherlink.com 1.10,2013-01-27 11:10:00,
2013-01-27 06:25:00,20.9,17.0,30.45,SSW,198,0.0,3.0,85,0.00,,,0.00,weatherlink.com 1.10,2013-01-27 11:25:00,
2013-01-27 06:40:00,21.1,17.0,30.45,SE,134,0.0,4.0,84,0.00,,,0.00,weatherlink.com 1.10,2013-01-27 11:40:00,
2013-01-27 06:55:00,21.0,17.0,30.44,SSE,164,0.0,4.0,84,0.00,,,0.00,weatherlink.com 1.10,2013-01-27 11:55:00,
2013-01-27 07:10:00,20.7,17.0,30.45,SSE,160,0.0,3.0,84,0.00,,,0.00,weatherlink.com 1.10,2013-01-27 12:10:00,
2013-01-27 07:25:00,20.3,17.0,30.45,SE,142,0.0,3.0,85,0.00,,,0.00,weatherlink.com 1.10,2013-01-27 12:25:00,
2013-01-27 07:40:00,19.9,16.0,30.46,SE,134,1.0,4.0,85,0.00,,,0.00,weatherlink.com 1.10,2013-01-27 12:40:00,
2013-01-27 07:55:00,19.9,16.0,30.46,SSE,150,0.0,3.0,86,0.00,,,0.00,weatherlink.com 1.10,2013-01-27 12:55:00,
2013-01-27 08:10:00,19.7,16.0,30.46,SSW,206,2.0,4.0,86,0.00,,,0.00,weatherlink.com 1.10,2013-01-27 13:10:00,
2013-01-27 08:25:00,20.0,17.0,30.46,SE,146,0.0,2.0,87,0.00,,,0.00,weatherlink.com 1.10,2013-01-27 13:25:00,
2013-01-27 08:40:00,20.9,17.0,30.46,SE,138,0.0,7.0,85,0.00,,,0.00,weatherlink.com 1.10,2013-01-27 13:40:00,
2013-01-27 08:55:00,21.5,17.0,30.46,ESE,103,2.0,7.0,83,0.00,,,0.00,weatherlink.com 1.10,2013-01-27 13:55:00,
2013-01-27 09:10:00,22.0,17.0,30.46,SSE,158,7.0,7.0,82,0.00,,,0.00,weatherlink.com 1.10,2013-01-27 14:10:00,
2013-01-27 09:25:00,22.7,18.0,30.45,NNW,331,1.0,8.0,81,0.00,,,0.00,weatherlink.com 1.10,2013-01-27 14:25:00,
2013-01-27 09:40:00,23.9,19.0,30.45,ESE,120,2.0,8.0,80,0.00,,,0.00,weatherlink.com 1.10,2013-01-27 14:40:00,
2013-01-27 09:55:00,24.3,18.0,30.46,SE,146,3.0,9.0,78,0.00,,,0.00,weatherlink.com 1.10,2013-01-27 14:55:00,
2013-01-27 10:10:00,24.8,19.0,30.44,SSW,196,4.0,7.0,78,0.00,,,0.00,weatherlink.com 1.10,2013-01-27 15:10:00,
2013-01-27 10:25:00,24.9,19.0,30.45,South,174,5.0,8.0,77,0.00,,,0.00,weatherlink.com 1.10,2013-01-27 15:25:00,
2013-01-27 10:40:00,25.1,19.0,30.45,SSE,162,4.0,6.0,77,0.00,,,0.00,weatherlink.com 1.10,2013-01-27 15:40:00,
2013-01-27 10:55:00,25.5,19.0,30.46,SE,134,1.0,8.0,77,0.00,,,0.00,weatherlink.com 1.10,2013-01-27 15:55:00,
2013-01-27 11:10:00,25.8,20.0,30.46,SSE,155,1.0,7.0,77,0.00,,,0.00,weatherlink.com 1.10,2013-01-27 16:10:00,
2013-01-27 11:25:00,26.2,20.0,30.45,SSE,152,2.0,6.0,76,0.00,,,0.00,weatherlink.com 1.10,2013-01-27 16:25:00,
2013-01-27 11:40:00,26.7,20.0,30.45,South,186,2.0,7.0,75,0.00,,,0.00,weatherlink.com 1.10,2013-01-27 16:40:00,
2013-01-27 11:55:00,27.4,21.0,30.44,South,182,1.0,8.0,76,0.00,,,0.00,weatherlink.com 1.10,2013-01-27 16:55:00,
2013-01-27 12:10:00,28.2,21.0,30.43,SW,232,4.0,9.0,74,0.00,,,0.00,weatherlink.com 1.10,2013-01-27 17:10:00,
2013-01-27 12:25:00,28.0,21.0,30.42,SE,142,6.0,7.0,75,0.00,,,0.00,weatherlink.com 1.10,2013-01-27 17:25:00,
2013-01-27 12:40:00,28.3,22.0,30.41,SSW,192,4.0,8.0,76,0.00,,,0.00,weatherlink.com 1.10,2013-01-27 17:40:00,
2013-01-27 12:55:00,28.8,22.0,30.41,South,176,1.0,6.0,76,0.00,,,0.00,weatherlink.com 1.10,2013-01-27 17:55:00,
2013-01-27 13:11:00,28.8,22.0,30.40,South,171,3.0,11.0,75,0.00,,,0.00,weatherlink.com 1.10,2013-01-27 18:11:00,
2013-01-27 13:26:00,29.5,23.0,30.38,SSE,158,0.0,8.0,75,0.00,,,0.00,weatherlink.com 1.10,2013-01-27 18:26:00,
2013-01-27 13:41:00,29.7,23.0,30.37,ENE,72,3.0,7.0,75,0.00,,,0.00,weatherlink.com 1.10,2013-01-27 18:41:00,
2013-01-27 13:56:00,30.2,23.0,30.36,ESE,123,0.0,5.0,74,0.00,,,0.00,weatherlink.com 1.10,2013-01-27 18:56:00,
2013-01-27 14:11:00,30.1,23.0,30.34,SE,134,0.0,8.0,75,0.00,,,0.00,weatherlink.com 1.10,2013-01-27 19:11:00,
2013-01-27 14:26:00,30.3,23.0,30.32,SSE,148,0.0,10.0,75,0.00,,,0.00,weatherlink.com 1.10,2013-01-27 19:26:00,
2013-01-27 14:41:00,30.2,23.0,30.31,ESE,112,0.0,9.0,75,0.00,,,0.00,weatherlink.com 1.10,2013-01-27 19:41:00,
2013-01-27 14:56:00,30.4,23.0,30.31,SW,225,2.0,9.0,75,0.00,,,0.00,weatherlink.com 1.10,2013-01-27 19:56:00,
2013-01-27 15:11:00,30.8,24.0,30.32,East,96,3.0,7.0,75,0.00,,,0.00,weatherlink.com 1.10,2013-01-27 20:11:00,
2013-01-27 15:26:00,30.8,23.0,30.32,ESE,115,1.0,7.0,74,0.00,,,0.00,weatherlink.com 1.10,2013-01-27 20:26:00,
2013-01-27 15:41:00,30.6,24.0,30.31,ESE,106,4.0,5.0,75,0.00,,,0.00,weatherlink.com 1.10,2013-01-27 20:41:00,
2013-01-27 15:56:00,30.9,24.0,30.30,SE,128,2.0,6.0,75,0.00,,,0.00,weatherlink.com 1.10,2013-01-27 20:56:00,
2013-01-27 16:11:00,30.9,24.0,30.31,SW,221,1.0,8.0,75,0.00,,,0.00,weatherlink.com 1.10,2013-01-27 21:11:00,
2013-01-27 16:26:00,30.6,24.0,30.29,SSE,159,1.0,5.0,77,0.00,,,0.00,weatherlink.com 1.10,2013-01-27 21:26:00,
2013-01-27 16:41:00,30.1,24.0,30.27,East,99,0.0,6.0,78,0.00,,,0.00,weatherlink.com 1.10,2013-01-27 21:41:00,
2013-01-27 16:56:00,30.1,24.0,30.28,East,82,3.0,9.0,78,0.00,,,0.00,weatherlink.com 1.10,2013-01-27 21:56:00,
2013-01-27 17:11:00,30.0,24.0,30.26,ESE,117,5.0,8.0,79,0.00,,,0.00,weatherlink.com 1.10,2013-01-27 22:11:00,
2013-01-27 17:26:00,29.9,24.0,30.27,ESE,119,3.0,9.0,79,0.00,,,0.00,weatherlink.com 1.10,2013-01-27 22:26:00,
2013-01-27 17:41:00,29.9,25.0,30.28,ESE,118,2.0,9.0,81,0.00,,,0.00,weatherlink.com 1.10,2013-01-27 22:41:00,
2013-01-27 17:56:00,30.0,25.0,30.29,SE,142,0.0,8.0,81,0.00,,,0.00,weatherlink.com 1.10,2013-01-27 22:56:00,
2013-01-27 18:11:00,30.0,25.0,30.29,SE,127,4.0,7.0,81,0.00,,,0.00,weatherlink.com 1.10,2013-01-27 23:11:00,
2013-01-27 18:26:00,29.9,25.0,30.30,South,173,0.0,7.0,82,0.00,,,0.00,weatherlink.com 1.10,2013-01-27 23:26:00,
2013-01-27 18:41:00,29.9,26.0,30.32,NNW,335,3.0,9.0,84,0.00,,,0.00,weatherlink.com 1.10,2013-01-27 23:41:00,
2013-01-27 18:56:00,30.0,27.0,30.31,ESE,113,0.0,8.0,88,0.00,,,0.00,weatherlink.com 1.10,2013-01-27 23:56:00,
2013-01-27 19:12:00,30.0,27.0,30.28,East,91,2.0,7.0,89,0.00,,,0.00,weatherlink.com 1.10,2013-01-28 00:12:00,
2013-01-27 19:26:00,29.9,27.0,30.25,East,86,6.0,10.0,90,0.00,,,0.00,weatherlink.com 1.10,2013-01-28 00:26:00,
2013-01-27 19:41:00,29.8,27.0,30.25,SE,128,4.0,10.0,90,0.00,,,0.00,weatherlink.com 1.10,2013-01-28 00:41:00,
2013-01-27 19:56:00,29.7,27.0,30.26,SSE,150,2.0,5.0,90,0.00,,,0.00,weatherlink.com 1.10,2013-01-28 00:56:00,
2013-01-27 20:11:00,29.7,27.0,30.24,ESE,117,1.0,7.0,91,0.00,,,0.00,weatherlink.com 1.10,2013-01-28 01:11:00,
2013-01-27 20:26:00,29.8,28.0,30.23,ESE,123,2.0,9.0,91,0.00,,,0.00,weatherlink.com 1.10,2013-01-28 01:26:00,
2013-01-27 20:41:00,29.9,28.0,30.23,East,100,3.0,7.0,92,0.00,,,0.00,weatherlink.com 1.10,2013-01-28 01:41:00,
2013-01-27 20:56:00,29.9,28.0,30.20,SSE,164,1.0,13.0,92,0.00,,,0.00,weatherlink.com 1.10,2013-01-28 01:56:00,
2013-01-27 21:11:00,30.1,28.0,30.19,SSE,165,4.0,8.0,93,0.00,,,0.00,weatherlink.com 1.10,2013-01-28 02:11:00,
2013-01-27 21:26:00,30.3,29.0,30.18,SE,125,5.0,8.0,93,0.00,,,0.00,weatherlink.com 1.10,2013-01-28 02:26:00,
2013-01-27 21:41:00,30.7,29.0,30.16,SE,131,2.0,9.0,93,0.00,,,0.00,weatherlink.com 1.10,2013-01-28 02:41:00,
2013-01-27 21:56:00,30.9,29.0,30.16,SE,134,3.0,10.0,93,0.00,,,0.00,weatherlink.com 1.10,2013-01-28 02:56:00,
2013-01-27 22:11:00,31.2,29.0,30.14,SE,145,2.0,11.0,93,0.00,,,0.00,weatherlink.com 1.10,2013-01-28 03:11:00,
2013-01-27 22:27:00,31.6,30.0,30.13,East,80,1.0,9.0,93,0.00,,,0.00,weatherlink.com 1.10,2013-01-28 03:27:00,
2013-01-27 22:42:00,31.9,30.0,30.12,South,190,0.0,11.0,93,0.00,,,0.00,weatherlink.com 1.10,2013-01-28 03:42:00,
2013-01-27 22:57:00,32.1,30.0,30.13,SW,219,3.0,11.0,93,0.00,,,0.00,weatherlink.com 1.10,2013-01-28 03:57:00,
2013-01-27 23:12:00,32.3,31.0,30.13,South,180,1.0,7.0,94,0.00,,,0.00,weatherlink.com 1.10,2013-01-28 04:12:00,
2013-01-27 23:27:00,32.5,31.0,30.12,SSW,192,1.0,4.0,95,0.00,,,0.00,weatherlink.com 1.10,2013-01-28 04:27:00,
2013-01-27 23:42:00,32.6,31.0,30.11,South,188,5.0,10.0,95,0.00,,,0.00,weatherlink.com 1.10,2013-01-28 04:42:00,
2013-01-27 23:57:00,32.7,32.0,30.10,SSW,208,4.0,9.0,95,0.00,,,0.00,weatherlink.com 1.10,2013-01-28 04:57:00,